Lapse_Rate
7.5 7.5 7.7 7.0 7.1 7.1 7.2 7.3 7.7 7.9 7.6 7.9 8.1 8.3 8.5 8.6 8.6 8.3 8.0 8.2 7.5 7.2 7.3 6.9 6.9 6.9 6.6 6.6 6.7 6.5 6.0 6.3 6.4 6.7 6.7 6.7 6.8 6.7 6.4 6.2 6.0 6.1 5.9 6.0
7.4 7.7 7.3 7.1 7.2 7.2 7.2 7.4 7.8 8.0 7.7 7.8 8.1 8.4 8.7 8.5 8.6 8.4 8.2 8.0 7.1 6.8 7.1 7.0 6.9 6.9 6.7 6.8 6.5 6.2 5.9 6.0 6.1 6.4 6.7 6.9 6.8 6.7 6.6 6.4 6.3 6.2 5.8 5.7
7.3 7.4 7.5 7.3 7.0 7.0 7.1 7.4 7.4 7.4 7.7 8.0 8.0 8.3 8.5 8.4 8.3 8.3 8.0 7.7 7.3 6.7 6.8 6.8 7.0 7.0 6.8 6.8 6.7 6.4 6.2 6.0 6.1 6.4 6.8 6.7 6.8 6.4 6.3 6.0 5.7 5.5 5.3 5.5
7.0 7.2 7.1 7.0 7.0 7.1 7.3 7.2 7.4 7.6 7.9 8.0 7.9 8.4 8.5 8.3 8.4 8.3 7.9 8.0 7.8 7.6 6.9 6.9 7.1 7.1 6.6 6.9 6.4 6.2 6.0 6.0 6.3 6.7 6.8 6.6 6.5 6.3 5.9 5.7 5.4 5.4 5.7 5.7
7.4 7.3 7.4 7.3 7.4 7.3 7.3 7.6 7.7 7.9 7.9 7.9 7.9 8.1 8.5 8.3 8.3 8.4 8.1 8.5 8.4 7.9 7.4 7.3 7.3 7.5 6.9 6.6 7.4 7.1 6.6 6.3 6.5 6.8 6.6 6.6 6.7 6.2 5.8 5.7 5.5 5.7 5.6 5.6
7.2 7.4 7.3 7.4 7.4 7.3 7.6 7.6 7.7 8.0 7.9 8.1 8.1 7.9 8.4 8.3 8.5 8.4 8.4 8.3 8.5 8.4 7.8 7.5 7.3 7.6 7.3 6.8 6.7 6.8 7.0 6.8 6.6 6.5 6.7 6.9 6.4 6.1 5.9 5.8 5.7 5.5 5.4 5.6
7.6 7.7 7.7 7.5 7.4 7.4 7.6 7.7 8.1 8.1 8.1 8.5 7.9 7.5 8.4 8.3 8.3 8.4 8.3 8.3 8.4 8.4 8.1 7.7 7.6 7.7 7.6 7.2 6.8 6.6 6.9 6.7 6.7 6.7 6.8 6.5 6.3 6.2 5.8 5.8 5.7 5.7 5.4 5.6
7.4 8.0 7.9 7.9 7.9 7.9 7.9 7.8 8.3 8.1 8.3 8.5 7.9 8.0 8.5 8.4 8.3 8.2 8.1 8.3 8.4 8.3 8.0 7.9 7.6 7.4 7.6 7.7 7.0 6.5 6.7 6.7 6.8 6.7 6.6 6.4 6.2 6.3 6.0 5.9 5.9 6.0 5.7 5.5
7.7 7.7 7.7 7.7 7.6 7.7 7.7 7.8 8.2 8.2 7.8 7.9 8.2 8.5 8.5 8.5 8.5 8.3 8.3 8.6 8.3 8.1 7.9 7.6 7.3 7.5 7.1 7.4 6.9 6.5 6.6 6.7 6.7 6.5 6.4 6.2 6.2 6.2 6.0 6.0 5.9 6.1 5.7 5.3
7.7 7.6 7.7 7.6 7.5 7.5 7.7 8.0 8.3 8.2 8.2 8.5 8.2 8.2 8.7 8.7 8.7 8.5 8.7 8.8 8.3 8.1 8.0 8.0 7.4 7.6 7.3 7.4 6.8 6.5 6.8 6.6 6.4 6.4 6.2 6.2 6.3 6.2 6.0 5.9 6.0 6.0 5.8 5.2
7.7 7.7 7.8 7.6 7.7 7.8 8.0 8.2 8.4 8.5 8.5 9.2 9.0 8.9 8.9 8.9 8.7 8.6 8.6 8.5 8.3 8.2 8.1 8.2 7.5 7.5 7.4 7.3 7.1 6.4 6.4 6.4 6.3 6.4 6.3 6.3 6.2 6.0 5.8 5.9 6.0 5.9 5.7 5.4
8.0 7.8 7.7 8.3 8.1 8.0 7.9 8.1 8.3 8.7 8.2 8.4 8.3 8.8 9.2 9.0 8.9 8.9 8.8 8.6 8.4 8.2 8.1 8.0 7.6 7.4 7.8 7.3 7.0 6.2 6.3 6.3 6.3 6.2 6.6 6.3 6.2 5.9 5.7 5.8 5.9 5.8 5.7 5.4
8.2 8.0 8.1 8.5 8.4 8.3 8.2 8.3 8.6 8.6 8.9 8.7 8.8 9.0 9.3 9.1 9.1 9.2 9.1 8.9 8.6 8.3 8.1 7.9 7.5 6.9 6.8 7.2 6.9 6.6 6.5 6.4 6.6 6.5 6.4 6.4 6.2 6.0 5.7 5.6 5.7 5.6 5.5 5.4
8.2 8.3 8.7 9.1 9.2 9.1 8.6 8.6 8.9 8.9 8.9 8.9 8.8 8.9 9.2 9.1 9.1 9.3 9.3 9.0 8.7 8.4 8.3 8.0 7.3 6.8 6.2 6.6 6.9 6.6 6.6 6.5 6.6 6.7 6.6 6.4 6.1 6.0 5.8 5.7 5.6 5.4 5.4 5.3
8.2 8.4 8.5 8.5 8.6 8.8 9.0 8.9 8.8 8.9 9.0 9.1 9.2 9.0 8.9 8.9 9.2 9.3 9.1 8.6 8.6 8.4 8.1 8.0 7.4 7.4 7.1 6.9 6.7 6.7 6.7 6.7 6.8 6.9 6.4 6.2 6.0 5.9 5.6 5.8 5.6 5.4 5.2 5.1
8.0 8.3 8.5 8.5 8.5 8.8 9.1 9.0 9.0 8.9 9.0 9.0 9.2 9.3 9.3 9.0 9.1 9.3 9.2 8.9 8.6 8.4 8.2 7.9 7.5 7.4 7.2 6.7 6.5 6.6 7.0 6.9 6.9 6.9 6.6 6.3 6.0 5.6 5.4 5.5 5.6 5.4 5.3 5.0
8.1 8.3 8.5 8.6 8.5 8.3 8.4 8.8 8.9 9.0 9.1 9.1 9.1 9.2 9.3 9.4 9.2 9.2 9.2 8.9 8.5 8.2 8.2 7.9 7.7 7.5 7.1 6.8 6.7 6.7 6.7 6.8 6.7 6.5 6.4 6.2 5.9 5.5 5.3 5.3 5.2 5.1 4.9 4.9
8.0 8.2 8.4 8.8 8.8 8.5 8.5 8.7 8.8 8.8 8.8 8.9 9.0 9.1 9.2 9.3 9.2 9.2 9.4 8.9 8.6 8.3 8.3 8.2 7.8 7.5 7.1 7.0 7.0 6.8 6.6 6.5 6.7 6.6 6.2 5.9 5.7 5.4 5.1 5.2 5.0 4.9 4.7 4.7
7.7 7.8 8.1 8.4 8.6 8.7 8.3 8.5 8.7 8.6 8.8 8.8 8.8 9.0 9.1 9.2 9.2 9.3 9.1 8.9 8.6 8.4 8.2 8.0 7.8 7.8 7.4 7.0 6.9 6.7 6.5 6.5 6.5 6.2 6.2 6.1 5.6 5.4 5.2 5.0 4.6 4.5 4.8 4.7
7.5 7.6 7.5 7.7 8.2 8.5 8.6 8.6 8.7 8.7 8.8 9.0 8.9 8.8 8.7 8.7 8.8 9.1 9.1 8.7 8.5 8.4 8.3 8.1 7.8 7.7 7.4 7.1 7.1 6.8 6.5 6.5 6.3 6.1 6.0 6.0 5.9 5.5 5.2 5.0 4.8 4.3 4.4 4.1
7.4 7.6 7.5 7.4 7.7 7.8 8.0 8.2 8.4 8.4 8.8 8.5 8.6 8.7 8.7 8.4 8.4 8.5 8.6 8.6 8.4 8.3 8.2 8.0 7.8 7.7 7.3 6.9 6.9 6.7 6.5 6.3 6.3 6.3 6.1 5.8 5.5 5.5 5.6 5.3 4.9 4.4 4.4 4.4
7.5 7.4 7.5 7.5 7.4 7.4 7.8 7.8 7.8 8.2 8.3 8.2 8.1 8.3 8.3 8.2 8.3 8.0 8.1 8.4 8.0 7.9 8.0 7.6 7.2 7.3 7.4 7.0 6.8 6.5 6.5 6.4 6.1 6.0 6.0 5.9 5.8 5.7 5.5 5.0 4.6 4.5 4.6 4.8
7.0 7.3 7.5 7.8 7.7 7.7 7.7 7.8 7.9 7.8 7.9 7.9 7.8 7.8 7.9 7.9 7.9 7.6 7.6 7.1 7.1 7.2 7.1 7.4 7.5 6.5 6.7 6.8 6.9 6.6 6.3 6.1 5.9 5.8 5.7 5.7 5.7 5.8 4.9 5.0 4.8 4.7 4.9 4.8
7.0 7.1 7.3 7.6 7.6 7.6 7.5 7.5 7.5 7.6 7.6 7.6 7.6 7.7 7.7 7.7 7.7 7.7 7.5 7.5 7.6 7.3 7.3 7.3 6.9 6.3 6.9 6.8 6.7 6.5 6.1 5.9 5.8 5.8 5.8 5.7 5.5 5.1 4.8 4.8 4.6 4.9 4.9 5.0
6.8 7.2 7.2 7.2 7.3 7.4 7.3 7.3 7.2 7.2 7.2 7.4 7.4 7.4 7.5 7.5 7.5 7.5 7.5 7.4 7.2 6.9 6.5 6.3 6.2 6.2 6.2 6.4 6.7 6.7 6.1 6.0 5.8 5.7 5.5 5.1 4.9 4.6 4.9 4.9 5.0 5.1 5.1 5.2
6.5 6.7 6.8 6.8 7.1 7.1 7.2 7.2 7.0 7.0 7.0 7.0 7.1 7.2 7.2 7.1 7.1 7.1 7.1 7.1 6.8 6.4 6.3 6.2 5.8 5.7 6.0 6.7 6.8 6.5 6.2 5.9 5.5 5.3 4.8 4.4 4.3 4.8 5.0 5.0 5.4 5.3 5.3 5.4
Wind_Speed
2 4 7 5 3 4 2 3 5 4 4 4 6 7 6 6 7 8 10 10 7 6 4 3 3 7 9 8 9 4 7 8 7 4 4 4 5 4 4 4 6 9 11 13
3 8 6 3 4 3 2 3 5 6 2 4 5 7 4 4 6 9 12 10 6 5 5 5 4 9 9 10 7 11 9 9 6 4 2 1 1 1 1 3 5 7 9 10
6 2 2 9 5 5 5 6 2 4 5 1 4 4 4 3 7 8 10 6 8 7 8 8 5 6 8 10 8 9 6 8 7 6 3 2 1 1 2 2 3 4 7 8
6 5 5 3 4 7 3 6 6 6 4 2 2 3 4 4 10 7 10 12 13 12 9 10 8 6 7 9 8 8 5 7 8 7 5 3 1 2 2 4 5 6 8 9
3 5 8 7 6 11 2 2 3 2 2 2 4 4 2 4 4 3 9 14 15 13 12 11 10 9 5 8 9 6 10 8 9 6 4 3 3 2 3 4 7 6 4 7
4 2 3 3 4 8 2 1 3 2 0 4 1 3 4 4 1 6 2 10 14 13 11 8 8 8 6 1 3 4 6 9 9 5 5 5 5 5 5 6 5 5 4 4
4 13 5 6 5 4 4 2 2 3 4 5 4 2 5 5 4 9 9 7 10 11 11 11 8 8 8 4 2 1 6 6 8 4 3 4 5 4 4 5 4 8 6 4
4 3 7 6 14 6 9 7 4 3 3 1 3 4 2 4 6 10 12 6 8 9 10 8 10 8 8 7 3 1 5 7 7 4 3 4 4 3 3 5 5 5 5 6
4 3 2 5 3 9 5 5 2 5 1 3 1 3 9 5 9 7 7 6 8 6 8 9 10 9 7 6 5 4 6 8 8 6 5 4 3 4 5 5 5 6 7 6
4 3 1 2 5 5 4 9 3 1 4 5 2 4 5 5 11 10 8 8 6 10 9 8 9 8 7 5 5 7 10 9 8 6 4 4 3 4 4 5 6 7 6 7
5 4 2 3 3 6 4 3 4 2 2 4 3 3 4 9 10 10 9 10 7 9 9 9 10 10 11 9 8 9 9 9 8 6 4 4 4 3 3 4 6 7 8 7
7 3 5 10 1 1 1 2 5 4 5 1 3 5 4 7 8 8 10 9 6 7 9 8 10 10 12 12 11 8 7 8 6 6 5 4 3 1 3 5 6 7 8 8
8 4 3 3 4 4 5 5 4 3 1 6 4 5 2 5 7 9 11 10 8 8 10 8 9 10 9 11 11 8 7 7 6 6 6 5 3 1 2 4 5 7 8 8
8 3 5 6 1 3 4 5 6 5 4 5 6 7 7 7 9 11 12 11 10 8 9 10 11 8 10 9 10 9 8 7 7 6 5 5 3 1 2 4 6 7 7 9
4 3 4 7 8 7 6 7 11 8 2 6 2 6 7 6 8 12 13 11 11 10 9 9 10 8 10 9 9 7 7 7 7 7 7 6 4 3 3 4 6 7 8 8
0 2 3 2 2 5 5 10 12 10 4 9 4 7 4 4 2 9 12 13 12 12 11 10 10 6 6 8 8 8 9 8 7 7 8 6 6 6 5 5 6 7 8 9
1 3 3 4 2 2 4 7 8 5 7 5 6 2 6 6 7 5 7 9 8 9 9 8 7 8 5 4 4 7 6 6 7 7 7 6 7 8 7 6 6 5 6 8
2 2 1 3 2 8 2 3 3 4 1 2 4 5 6 5 5 8 4 8 8 8 9 9 8 7 6 4 4 2 2 4 6 8 8 7 9 9 8 7 6 7 6 7
7 2 2 4 8 3 4 1 2 2 5 2 4 3 2 4 7 7 9 5 8 10 9 8 8 9 8 7 5 3 2 2 3 5 10 10 9 10 9 8 6 6 7 7
5 2 6 3 8 12 3 4 2 4 5 1 4 4 5 7 6 3 5 8 10 11 10 10 10 9 9 6 4 2 2 2 2 2 4 4 8 9 10 9 7 5 7 7
6 4 12 7 6 3 2 3 1 8 1 3 2 4 7 4 2 8 8 8 9 10 11 11 11 9 8 5 5 3 1 2 4 3 3 3 7 10 11 10 7 7 8 9
9 8 6 4 7 10 2 3 5 3 3 2 2 3 7 10 11 11 10 11 12 13 13 12 11 6 7 5 4 2 2 2 3 6 7 7 6 6 7 10 8 8 9 8
4 3 4 6 4 2 1 0 1 4 6 3 3 4 10 12 9 12 10 12 12 12 9 9 15 13 6 7 4 3 0 3 5 7 7 7 8 7 7 8 8 5 7 6
2 1 2 3 4 3 2 3 3 3 4 4 4 7 9 8 10 10 10 8 6 3 1 4 11 14 10 6 6 6 4 6 7 7 7 6 7 8 7 5 5 6 5 5
2 2 2 3 4 3 7 5 2 2 2 1 5 7 7 6 7 8 7 4 4 5 7 6 8 11 10 7 6 7 6 7 7 7 6 6 6 7 7 7 4 5 4 3
1 3 2 1 7 4 3 2 0 1 2 3 6 5 4 6 6 6 5 6 7 7 6 7 8 9 9 7 7 7 6 6 7 8 6 6 6 6 6 5 7 16 11 11
Wind_Direction
67 216 230 243 183 132 99 303 297 273 302 278 314 303 318 217 219 214 216 207 185 136 143 151 200 145 136 134 135 145 169 172 168 158 184 215 221 213 238 255 263 259 254 246
165 249 241 152 165 187 208 258 273 303 11 273 315 304 283 249 237 233 231 215 189 159 166 145 152 169 181 177 179 132 137 142 153 151 141 0 36 50 304 255 264 259 259 251
218 354 99 171 158 195 221 238 233 301 327 37 316 283 277 239 254 235 235 219 198 187 188 184 174 188 207 197 185 139 146 125 114 113 120 121 135 141 276 301 288 265 260 256
242 224 180 166 225 201 229 215 264 292 303 290 299 290 265 265 281 243 235 215 202 188 190 182 190 202 201 188 179 106 118 80 77 101 130 146 156 347 328 301 290 281 270 266
213 192 196 208 231 187 124 196 321 344 198 260 190 252 255 285 324 317 215 220 214 192 188 189 196 210 201 155 144 133 87 67 75 87 103 94 35 13 340 329 321 323 300 280
256 236 219 205 163 192 98 159 68 65 217 252 187 273 246 255 259 299 347 231 218 199 182 193 209 217 224 159 158 111 75 63 80 76 66 49 40 16 2 351 335 313 314 311
255 247 218 200 232 201 176 188 249 205 202 250 75 235 274 268 265 267 293 286 227 194 178 193 200 212 218 202 270 110 97 88 93 96 84 58 48 15 359 358 343 338 334 332
221 222 183 176 218 219 194 202 217 241 213 33 129 237 250 286 288 281 277 262 213 188 179 170 195 202 214 211 228 286 112 123 134 139 103 78 50 27 6 358 349 355 336 323
189 256 280 224 168 206 150 195 71 117 72 252 252 264 266 258 264 272 260 218 200 181 151 165 175 183 188 187 204 215 141 148 154 146 115 105 69 29 6 360 359 7 347 341
182 259 158 334 155 67 241 141 165 137 189 227 197 270 263 255 248 233 225 227 151 118 127 142 154 161 152 158 161 168 159 153 154 136 138 133 84 39 3 350 11 19 3 358
158 234 204 283 188 216 157 181 68 116 292 240 233 232 214 245 250 234 205 215 137 134 119 136 142 153 143 147 150 148 146 154 157 137 155 127 78 21 358 10 26 22 20 13
182 164 217 239 43 46 191 229 186 238 191 211 294 253 177 248 266 223 208 173 117 128 147 141 149 145 141 143 146 149 155 159 154 151 149 125 111 27 12 27 37 35 37 34
173 203 226 195 165 143 226 201 195 121 149 194 244 265 180 261 249 208 202 172 136 131 155 154 137 130 144 150 134 157 167 163 162 163 157 150 157 132 65 51 54 47 50 49
145 158 233 264 43 110 173 188 192 226 176 160 230 284 280 262 247 208 194 178 164 154 161 164 159 168 158 140 152 164 169 173 172 170 167 180 184 189 92 90 75 65 55 56
182 222 206 265 246 240 230 180 180 215 215 236 220 216 268 269 262 226 191 176 179 176 178 184 176 174 146 156 161 175 176 176 180 177 190 192 165 190 144 107 90 87 80 70
118 185 171 244 267 187 233 241 231 221 193 263 264 264 288 323 330 185 187 187 187 181 187 190 175 172 177 165 181 189 191 185 185 196 206 176 154 175 159 134 119 104 97 87
288 167 179 233 342 197 229 231 210 210 204 196 208 304 351 320 326 298 202 165 180 182 190 182 168 158 169 187 208 211 210 193 193 210 206 180 170 176 160 151 135 110 104 99
288 134 234 219 200 227 88 341 257 248 102 232 295 342 339 327 58 47 24 168 159 157 160 157 143 107 71 52 60 94 141 208 211 207 204 186 185 173 151 155 149 133 127 99
216 204 195 233 219 304 153 74 169 200 190 13 294 291 56 127 143 63 27 71 122 127 114 114 105 99 85 63 44 52 96 132 193 222 216 202 191 167 160 154 158 134 127 111
164 251 237 170 236 236 189 132 325 184 224 179 276 255 176 163 198 127 71 80 87 94 99 103 95 88 81 62 45 44 323 290 285 329 322 245 164 165 157 147 151 136 116 109
189 199 216 205 234 240 152 336 168 211 220 349 263 212 194 189 65 117 115 95 94 99 101 97 89 83 66 39 57 64 18 13 348 347 5 78 150 159 151 145 141 138 125 125
190 194 202 195 223 236 64 142 221 3 329 312 254 187 146 132 133 136 138 136 133 130 127 124 109 87 101 80 81 96 76 18 43 54 58 58 78 107 128 132 130 135 133 121
209 277 218 224 206 77 130 303 279 279 281 258 230 199 159 153 160 160 156 151 165 173 173 154 135 126 109 97 106 104 69 86 81 82 79 81 78 85 100 110 114 99 114 111
185 191 241 220 168 243 262 253 250 263 283 292 216 185 186 185 174 171 163 152 146 133 193 154 108 113 102 98 104 117 100 79 85 87 86 86 94 90 79 70 96 108 104 102
11 187 175 270 245 254 250 252 296 296 313 181 163 179 195 190 161 143 143 156 160 145 135 127 112 106 108 104 93 85 84 92 90 82 80 80 81 85 79 58 45 72 48 87
325 15 271 26 350 334 41 12 268 309 23 111 154 144 136 163 153 142 114 129 133 117 96 85 90 95 96 98 87 83 90 108 113 108 107 102 107 107 101 102 80 50 58 58